Weather History for Siloam Springs, AR

Change the Weather History Date:

Thursday, January 3, 2013

  Actual Average Record
Temperature  
Mean Temperature 30 °F -  
Max Temperature 42 °F 44 °F 75 °F (2009)
Min Temperature 19 °F 27 °F 8 °F (1999)
Degree Days  
Heating Degree Days 34    
Moisture  
Dew Point 20 °F    
Average Humidity 71    
Maximum Humidity 86    
Minimum Humidity 45    
Precipitation  
Precipitation 0.00 in - - ()
Sea Level Pressure  
Sea Level Pressure 30.38 in    
Wind  
Wind Speed 2 mph (NNW)    
Max Wind Speed 8 mph    
Max Gust Speed -    
Averages and records for this station are not official NWS values.
T = Trace of Precipitation, MM = Missing Value Source: NWS Daily Summary

Daily Weather History Graph

Daily Weather History Graph

Search for Another Location

Airport:

Trip Planner

Search our weather history database for the weather conditions in past years. The results will help you decide how hot, cold, wet, or windy it might be!

Date:

Astronomy

Jan. 03, 2013 Rise Set
Actual Time 7:29 AM CST 5:16 PM CST
Civil Twilight 7:00 AM CST 5:44 PM CST
Nautical Twilight 6:28 AM CST 6:16 PM CST
Astronomical Twilight 5:57 AM CST 6:47 PM CST
Moon 11:39 PM CST (1/3) 10:53 AM CST (1/3)
Length of Visible Light 10h 43m
Length of Day
9h 46m
Waning Gibbous, 65% of the Moon is Illuminated
Jan 3
Waning Gibbous
Jan 4
Last Quarter
Jan 11
New
Jan 18
First Quarter
Jan 26
Full

Hourly Weather History & Observations

Time (CST) Temp. Windchill Dew Point Humidity Pressure Visibility Wind Dir Wind Speed Gust Speed Precip Events Conditions
12:15 AM 23.0 °F 18.4 °F 15.8 °F 74% 30.27 in - SSW 3.5 mph - N/A   Clear
12:35 AM 21.2 °F - 15.8 °F 80% 30.28 in - Calm Calm - N/A   Clear
12:55 AM 23.0 °F - 17.6 °F 80% 30.27 in - Calm Calm - N/A   Clear
1:15 AM 23.0 °F - 17.6 °F 80% 30.28 in - Calm Calm - N/A   Clear
1:55 AM 23.0 °F - 17.6 °F 80% 30.29 in - Calm Calm - N/A   Clear
2:55 AM 21.2 °F - 17.6 °F 86% 30.31 in - Calm Calm - N/A   Unknown
3:15 AM 21.2 °F 16.4 °F 17.6 °F 86% 30.32 in - WNW 3.5 mph - N/A   Unknown
3:35 AM 21.2 °F 13.6 °F 15.8 °F 80% 30.32 in - NW 5.8 mph - N/A   Clear
3:55 AM 21.2 °F - 15.8 °F 80% 30.32 in - Calm Calm - N/A   Clear
4:15 AM 21.2 °F - 15.8 °F 80% 30.33 in - Calm Calm - N/A   Clear
4:35 AM 21.2 °F - 15.8 °F 80% 30.33 in - Calm Calm - N/A   Clear
4:55 AM 21.2 °F - 15.8 °F 80% 30.34 in - Calm Calm - N/A   Clear
5:15 AM 19.4 °F - 15.8 °F 86% 30.35 in - Calm Calm - N/A   Unknown
5:35 AM 21.2 °F - 15.8 °F 80% 30.35 in - Calm Calm - N/A   Mostly Cloudy
5:55 AM 21.2 °F - 15.8 °F 80% 30.35 in - Calm Calm - N/A   Overcast
6:15 AM 21.2 °F - 17.6 °F 86% 30.35 in - Calm Calm - N/A   Mostly Cloudy
6:35 AM 19.4 °F - 15.8 °F 86% 30.36 in - Calm Calm - N/A   Unknown
6:55 AM 19.4 °F - 14.0 °F 80% 30.37 in - Calm Calm - N/A   Clear
7:35 AM 19.4 °F - 15.8 °F 86% 30.37 in - Calm Calm - N/A   Unknown
7:55 AM 19.4 °F - 15.8 °F 86% 30.38 in - Calm Calm - N/A   Unknown
8:15 AM 21.2 °F - 15.8 °F 80% 30.39 in - Calm Calm - N/A   Mostly Cloudy
8:35 AM 21.2 °F - 17.6 °F 86% 30.40 in - Calm Calm - N/A   Overcast
9:16 AM 26.6 °F - 21.2 °F 80% 30.42 in - Calm Calm - N/A   Clear
9:35 AM 28.4 °F - 23.0 °F 80% 30.43 in - Calm Calm - N/A   Clear
9:55 AM 30.2 °F - 24.8 °F 80% 30.43 in - Calm Calm - N/A   Clear
10:15 AM 32.0 °F - 26.6 °F 80% 30.44 in - Calm Calm - N/A   Clear
10:35 AM 33.8 °F - 26.6 °F 75% 30.44 in - Calm Calm - N/A   Clear
10:55 AM 33.8 °F 30.8 °F 26.6 °F 75% 30.45 in - NW 3.5 mph - N/A   Clear
11:15 AM 35.6 °F - 26.6 °F 70% 30.44 in - Calm Calm - N/A   Clear
11:35 AM 35.6 °F 32.8 °F 26.6 °F 70% 30.44 in - West 3.5 mph - N/A   Partly Cloudy
11:55 AM 37.4 °F 33.8 °F 26.6 °F 65% 30.42 in - NW 4.6 mph - N/A   Clear
12:15 PM 39.2 °F 37.0 °F 28.4 °F 65% 30.41 in - NNW 3.5 mph - N/A   Scattered Clouds
12:55 PM 39.2 °F - 26.6 °F 61% 30.39 in - Calm Calm - N/A   Scattered Clouds
1:15 PM 39.2 °F 35.9 °F 26.6 °F 61% 30.38 in - WNW 4.6 mph - N/A   Scattered Clouds
1:55 PM 41.0 °F - 26.6 °F 57% 30.38 in - Calm Calm - N/A   Clear
2:35 PM 42.8 °F 38.0 °F 24.8 °F 49% 30.37 in - North 8.1 mph - N/A   Clear
2:55 PM 42.8 °F 38.0 °F 24.8 °F 49% 30.38 in - North 8.1 mph - N/A   Clear
3:55 PM 41.0 °F 37.1 °F 23.0 °F 49% 30.38 in - NW 5.8 mph - N/A   Clear
4:15 PM 41.0 °F 38.0 °F 21.2 °F 45% 30.39 in - NW 4.6 mph - N/A   Clear
4:35 PM 39.2 °F 35.0 °F 21.2 °F 49% 30.39 in - NNW 5.8 mph - N/A   Clear
4:55 PM 37.4 °F 34.9 °F 21.2 °F 52% 30.40 in - North 3.5 mph - N/A   Clear
5:15 PM 37.4 °F 33.8 °F 21.2 °F 52% 30.40 in - North 4.6 mph - N/A   Clear
5:35 PM 35.6 °F 30.7 °F 19.4 °F 52% 30.40 in - North 5.8 mph - N/A   Clear
6:15 PM 33.8 °F 28.6 °F 19.4 °F 56% 30.40 in - North 5.8 mph - N/A   Clear
6:36 PM 33.8 °F 27.7 °F 19.4 °F 56% 30.41 in - North 6.9 mph - N/A   Clear
6:55 PM 33.8 °F 28.6 °F 19.4 °F 56% 30.41 in - North 5.8 mph - N/A   Clear
7:15 PM 32.0 °F 28.7 °F 19.4 °F 60% 30.41 in - North 3.5 mph - N/A   Clear
7:35 PM 30.2 °F - 19.4 °F 64% 30.41 in - Calm Calm - N/A   Clear
7:55 PM 30.2 °F - 19.4 °F 64% 30.42 in - Calm Calm - N/A   Clear
8:35 PM 30.2 °F - 19.4 °F 64% 30.42 in - Calm Calm - N/A   Overcast
8:55 PM 30.2 °F - 19.4 °F 64% 30.42 in - Calm Calm - N/A   Overcast
9:15 PM 30.2 °F - 19.4 °F 64% 30.42 in - Calm Calm - N/A   Overcast
9:35 PM 30.2 °F - 21.2 °F 69% 30.42 in - Calm Calm - N/A   Overcast
10:15 PM 30.2 °F 23.4 °F 23.0 °F 75% 30.43 in - NNW 6.9 mph - N/A   Overcast
10:35 PM 32.0 °F 26.4 °F 24.8 °F 75% 30.42 in - North 5.8 mph - N/A   Overcast
10:55 PM 30.2 °F 26.7 °F 23.0 °F 75% 30.43 in - North 3.5 mph - N/A   Overcast
11:15 PM 30.2 °F - 23.0 °F 75% 30.43 in - Calm Calm - N/A   Overcast
11:55 PM 30.2 °F - 23.0 °F 75% 30.43 in - Calm Calm - N/A   Overcast